EHI
12 13 13 10 6 2 0 0 0 0 0 0 0 0 0 0 0 0 0 1 2 2 1 1 2 3 3 3 1 0 0 0 0 0 0 0 0 0 0 0 0 0 0 0 0 0 0 0 0
9 10 9 7 3 1 0 0 0 0 0 0 0 0 0 0 0 0 0 0 1 1 1 1 2 3 3 2 2 1 0 0 0 0 0 0 0 0 0 0 0 0 0 0 0 0 0 0 0
7 6 5 3 1 0 0 0 0 0 0 0 0 0 0 0 0 0 0 0 0 1 2 2 2 2 1 1 1 1 0 0 0 0 0 0 0 0 0 0 0 0 0 0 0 0 0 0 0
7 5 3 1 0 0 0 0 0 0 0 0 0 0 0 0 0 0 0 0 0 1 2 2 1 1 0 0 0 0 0 0 0 0 0 0 0 0 0 1 0 0 0 0 0 0 0 0 0
8 4 1 0 0 0 0 0 0 0 0 0 0 0 0 0 1 0 0 0 0 0 1 1 1 0 0 0 0 0 0 0 0 0 0 0 0 0 0 0 0 0 0 0 0 0 0 0 0
5 3 1 0 0 0 0 0 0 0 0 0 0 0 0 0 0 0 0 0 0 0 0 0 0 0 0 0 0 0 0 0 0 0 0 0 0 0 0 0 0 0 0 0 0 0 0 0 0
1 1 0 0 0 0 0 0 0 0 0 0 0 0 0 0 0 0 1 1 1 0 0 0 0 0 0 0 0 0 0 0 0 0 0 0 0 0 0 0 0 0 0 0 1 0 0 0 0
0 0 0 0 0 0 0 0 0 0 0 0 0 0 0 0 0 0 1 2 1 0 0 0 0 0 0 0 0 0 0 0 0 0 0 0 0 0 0 0 0 0 0 1 1 0 0 0 0
0 0 0 0 0 0 0 0 0 0 0 0 0 0 0 0 0 0 1 1 1 0 0 0 0 0 0 0 0 0 0 0 0 0 0 0 0 0 0 0 0 0 0 1 0 0 0 0 0
0 0 0 0 0 0 0 0 0 0 0 0 0 0 0 0 0 0 0 0 0 0 0 0 0 0 0 0 0 0 0 0 0 0 0 0 0 0 0 0 0 0 0 0 0 0 0 0 0
0 0 0 0 0 0 0 0 0 0 0 0 0 0 0 0 0 0 0 0 0 0 0 0 0 0 0 0 0 0 0 0 0 0 0 0 0 0 0 0 0 0 0 0 0 0 0 0 0
0 0 0 0 0 0 0 0 0 0 0 0 0 0 0 0 0 0 0 0 0 0 0 0 0 0 0 0 0 0 0 0 0 0 0 0 0 0 0 0 0 0 0 0 0 0 0 0 0
0 0 0 0 0 0 0 0 0 0 0 0 0 0 0 0 0 0 0 0 0 0 0 0 0 0 0 0 0 0 0 0 0 0 0 0 0 0 0 0 0 0 0 0 0 0 0 0 0
0 0 0 0 0 0 0 0 0 0 0 0 0 0 0 0 0 0 0 0 0 0 0 0 0 0 0 0 0 0 0 0 0 0 0 0 0 0 0 0 0 0 0 0 0 0 0 0 0
0 0 0 0 0 0 0 0 0 0 0 0 0 0 0 0 0 0 0 0 0 1 1 1 0 0 0 0 0 0 0 0 0 0 0 0 0 0 0 0 0 0 0 0 0 0 0 0 0
0 0 0 0 0 0 0 0 0 0 0 0 0 0 0 0 0 0 0 0 0 1 2 1 0 0 0 0 0 0 0 0 0 0 0 0 0 0 0 0 0 0 0 0 0 0 0 0 0
0 0 0 0 0 0 0 0 0 0 0 0 0 0 0 0 0 0 0 0 0 1 1 1 0 0 0 0 0 0 0 0 0 0 0 0 0 0 0 0 0 0 0 0 0 0 0 0 0
0 0 0 0 0 0 0 0 0 0 0 0 0 0 0 0 0 0 0 0 0 0 0 0 0 0 0 0 0 0 0 0 0 0 0 0 0 0 0 0 0 0 0 0 0 0 0 0 0
0 0 0 0 0 0 0 0 0 0 0 0 0 0 0 0 0 0 0 0 1 1 1 1 0 0 0 0 0 0 0 0 0 0 0 0 0 0 0 0 0 0 0 0 0 0 0 0 0
0 0 0 0 0 0 0 0 0 1 0 0 0 0 0 0 0 0 0 0 1 1 1 1 1 1 0 0 0 0 0 0 0 0 0 0 0 0 0 0 0 0 0 0 0 0 0 0 0
0 0 0 0 0 0 0 0 0 0 0 0 0 0 0 0 0 0 0 0 1 1 0 1 2 2 1 0 0 0 0 0 0 0 0 0 0 0 0 0 0 0 0 0 0 0 0 0 0
0 0 0 0 0 0 0 0 0 0 0 0 0 0 0 0 0 0 0 1 1 1 1 1 3 2 1 0 0 0 0 0 0 0 0 0 0 0 0 0 0 0 0 0 0 0 0 0 0
0 0 0 0 0 0 0 0 0 0 0 0 0 0 0 0 0 0 0 1 2 3 3 3 3 3 1 0 0 0 0 0 0 0 0 0 0 0 0 0 0 0 0 0 0 0 0 0 0
0 0 0 0 0 0 0 0 0 0 0 0 0 0 0 0 0 0 0 1 2 4 4 4 3 3 2 1 0 0 0 0 0 0 0 0 0 0 0 0 0 0 0 0 0 0 0 0 0
0 0 0 0 0 0 0 0 0 0 0 0 0 0 0 0 0 0 0 1 2 4 5 4 3 3 2 1 0 0 0 0 0 0 1 1 0 0 0 0 0 0 0 0 0 0 0 0 0
0 0 0 0 0 0 0 0 0 0 0 0 0 0 0 0 0 1 2 2 2 4 5 4 3 3 2 1 0 0 0 0 1 1 2 2 1 0 0 0 0 0 0 0 0 0 0 0 0
0 0 0 0 0 0 0 0 0 0 0 0 0 0 0 0 1 3 4 3 3 5 6 5 3 3 2 1 1 0 0 1 1 2 3 3 1 0 0 0 0 0 0 0 0 0 0 0 0
0 0 0 0 0 0 0 0 0 0 0 0 0 0 0 0 1 3 4 3 4 5 5 5 3 2 2 1 1 0 0 1 2 2 3 3 2 1 0 0 0 0 0 0 0 0 0 0 0
0 0 0 0 0 0 0 0 0 0 0 0 0 0 0 0 1 2 3 2 2 3 3 3 3 2 1 1 1 1 1 1 1 2 3 3 3 2 1 0 0 0 0 0 0 0 0 0 0
0 0 0 0 0 0 0 0 0 0 0 0 0 0 0 0 1 2 2 1 0 1 1 2 3 2 1 1 2 2 2 2 1 1 2 3 3 2 1 0 0 0 0 0 0 0 0 0 0
Wind_Speed
5 6 3 1 2 2 1 3 4 6 7 8 9 10 12 12 9 9 3 4 9 10 10 10 11 11 11 11 11 10 10 10 10 10 10 10 10 9 9 8 8 8 8 8 8 9 9 10 9
6 3 2 1 2 1 3 4 8 8 8 7 8 11 12 11 10 8 4 5 9 11 9 10 11 11 11 11 11 10 10 10 10 10 10 10 9 9 9 8 8 9 8 8 8 8 9 9 9
8 4 2 2 2 1 3 5 7 8 7 6 7 10 9 7 8 6 5 7 10 11 10 10 11 11 11 11 11 10 10 10 10 10 10 10 9 9 9 9 8 8 8 8 8 8 9 9 8
4 2 3 2 1 4 5 6 5 7 6 6 8 9 9 7 7 8 8 9 11 11 11 10 11 11 11 11 10 10 11 10 10 10 9 9 9 9 9 9 8 8 8 8 8 8 8 8 7
2 2 3 2 2 4 5 6 5 6 6 7 10 10 9 9 10 10 7 9 10 11 11 10 12 12 11 10 10 10 10 10 9 9 9 9 9 9 9 9 8 8 8 8 8 8 8 8 7
2 2 3 1 4 5 4 4 5 7 8 9 10 10 7 7 8 7 6 7 10 10 10 11 12 12 11 11 10 9 9 9 8 8 8 8 8 9 9 9 8 7 7 8 8 8 7 7 6
3 3 4 1 4 4 4 4 5 6 7 6 6 9 8 8 6 5 6 6 7 9 9 9 9 10 11 10 9 8 8 7 6 6 5 6 6 8 8 9 8 7 7 7 8 7 7 6 5
2 3 4 1 3 3 4 4 5 6 6 4 4 7 8 9 7 6 6 5 6 6 7 7 8 9 8 7 8 7 6 5 4 4 4 4 5 6 8 8 7 7 7 7 6 6 5 4 3
3 3 2 2 3 4 4 4 5 5 6 6 8 11 12 12 10 8 5 5 4 5 5 5 6 6 6 7 7 6 6 4 3 4 4 4 3 3 4 8 7 6 5 5 5 4 4 3 1
2 2 2 3 4 4 4 4 4 4 7 8 11 14 13 11 9 8 7 7 5 4 4 5 5 5 5 5 4 3 3 3 2 2 3 2 2 3 6 6 5 4 4 4 3 3 3 3 1
1 0 3 5 5 4 3 4 3 4 5 8 12 13 12 10 8 7 7 6 5 4 3 4 4 5 5 3 3 1 1 1 1 2 3 2 3 3 3 2 2 2 3 2 2 2 2 1 2
1 2 3 4 4 3 2 3 3 5 5 8 10 12 11 10 8 7 7 7 5 4 3 3 4 5 4 3 2 2 1 1 1 1 2 3 1 2 2 2 1 1 1 1 1 1 3 4 4
1 2 3 4 3 3 3 4 4 6 7 8 9 10 9 8 8 6 6 7 7 5 3 3 3 4 5 3 1 3 2 1 2 1 1 3 2 2 2 2 2 2 2 1 2 3 4 5 5
2 3 3 3 4 3 3 3 3 6 7 8 7 7 7 6 7 7 6 6 7 6 5 3 3 4 3 3 2 3 2 2 2 1 2 4 2 2 2 3 2 2 2 2 2 3 3 3 3
2 3 3 4 4 4 2 2 4 8 9 8 8 6 6 6 5 6 6 6 6 6 6 4 3 4 4 4 3 3 2 2 2 2 2 3 3 3 3 3 2 2 2 2 2 3 2 2 2
5 5 4 5 6 5 3 2 6 8 9 8 7 6 5 5 6 5 6 5 5 5 7 5 4 4 5 4 3 2 3 3 3 2 3 3 3 4 3 3 2 2 2 2 2 2 2 3 2
6 5 4 4 6 5 5 3 6 7 9 8 7 7 7 6 6 6 6 6 5 5 6 6 4 4 5 4 2 2 3 3 3 3 3 3 3 4 4 2 2 3 3 2 2 3 2 2 2
3 2 1 1 3 5 4 4 7 7 8 8 7 8 8 8 8 7 7 6 5 5 6 6 5 4 4 2 2 2 3 2 3 3 2 3 3 4 3 2 3 3 3 2 2 2 2 1 1
3 3 1 0 2 3 4 5 6 7 7 7 7 8 9 8 8 8 7 6 6 5 6 6 6 5 4 2 2 2 2 1 2 2 2 2 2 3 3 2 2 3 2 2 2 2 2 1 1
3 2 0 1 1 2 2 4 6 8 9 8 8 8 8 8 8 9 8 7 6 5 5 6 6 6 5 3 2 2 2 1 2 1 2 2 2 2 2 2 2 2 2 2 2 2 1 1 1
3 2 1 2 3 3 3 4 7 8 8 7 7 6 8 10 10 10 9 8 7 6 5 6 6 6 6 5 2 2 2 1 1 1 1 1 2 2 2 1 1 2 2 2 1 1 1 1 2
2 1 2 3 4 3 5 2 4 7 8 9 8 7 6 7 8 9 9 9 8 7 6 6 6 6 6 6 3 3 3 2 2 2 2 1 2 2 1 1 1 1 2 2 1 1 1 1 1
2 2 3 4 4 5 7 4 3 6 8 9 9 8 7 7 7 8 8 8 8 7 5 5 5 5 6 5 4 3 2 2 2 2 3 2 2 2 1 1 1 1 2 1 1 2 1 1 1
2 4 5 6 4 5 6 4 2 4 6 8 9 8 7 7 7 8 7 6 6 6 5 4 5 5 5 5 5 4 3 2 2 2 2 2 2 1 1 1 1 1 1 1 1 1 1 1 1
4 3 3 2 3 4 3 2 1 3 4 5 7 7 8 7 7 8 8 7 6 7 6 5 6 5 5 5 5 5 4 3 3 3 3 2 2 2 2 2 1 1 1 2 1 1 1 1 1
4 3 2 3 2 2 2 2 2 4 4 4 5 5 7 7 7 8 8 7 7 7 7 6 6 6 5 5 5 5 5 3 2 3 3 3 2 2 3 3 2 1 2 2 2 1 0 0 1
4 4 4 4 6 4 2 2 3 4 4 5 6 6 6 8 7 7 8 7 7 7 7 6 6 6 6 6 5 4 4 4 3 3 2 2 2 2 3 3 2 2 2 1 1 1 0 1 1
7 6 4 2 3 3 2 1 1 3 4 4 5 6 6 7 7 7 7 7 7 6 6 6 6 6 6 6 5 4 4 4 3 2 2 3 2 2 3 3 3 2 2 2 1 1 0 1 1
6 6 5 3 3 1 2 2 1 2 3 4 5 6 7 7 7 7 6 5 6 6 6 5 5 5 5 5 4 4 4 4 4 3 2 2 2 3 3 2 2 2 2 2 2 1 1 1 1
5 5 4 3 4 2 1 2 1 2 2 3 4 6 6 6 6 7 6 6 5 6 6 5 5 5 5 4 4 4 4 4 3 3 3 3 3 3 3 3 2 2 2 2 3 2 1 1 1
Wind_Direction
244 233 222 257 269 245 47 68 80 74 64 52 53 64 66 53 60 92 127 96 101 101 101 91 86 83 79 77 75 75 72 73 74 73 71 69 68 68 68 67 70 72 72 70 69 68 68 65 60
260 237 243 248 270 307 64 69 70 65 78 77 63 69 73 70 80 98 110 96 100 101 97 93 90 85 81 77 74 74 75 76 76 75 73 71 69 68 67 66 71 73 73 72 71 71 72 68 63
251 241 245 239 275 24 76 74 83 79 71 76 75 62 61 71 83 102 122 113 100 96 95 96 94 89 85 81 78 76 78 79 79 77 73 71 68 66 65 65 69 71 71 71 70 71 72 70 63
237 236 242 244 17 56 81 95 100 97 81 76 85 76 72 59 86 114 124 112 106 104 103 102 97 93 89 84 82 80 81 80 78 75 72 69 67 66 66 65 68 71 71 73 73 72 73 69 62
240 250 257 243 73 75 75 76 84 86 84 71 80 89 85 78 94 109 114 113 111 110 112 112 107 101 95 91 87 84 82 80 79 76 73 70 67 68 69 66 67 71 72 73 75 76 77 70 61
272 266 273 250 93 74 72 71 79 86 93 90 97 101 96 101 100 108 110 107 109 113 114 117 118 111 101 93 89 87 84 82 82 81 78 76 74 73 71 69 68 72 75 76 78 79 81 74 64
277 288 279 256 105 92 74 52 70 84 87 82 94 101 114 112 107 107 98 92 102 113 121 131 132 121 112 105 98 94 93 92 93 95 93 89 86 84 79 73 69 72 78 82 84 85 87 80 68
280 289 293 331 103 93 90 77 61 73 78 80 89 112 128 131 128 110 100 99 105 117 124 128 133 138 134 123 119 117 115 118 125 129 133 128 116 105 94 82 74 76 85 90 93 95 99 94 77
258 274 303 19 91 103 116 101 79 86 93 78 69 92 122 134 134 128 125 115 109 115 121 120 119 123 127 131 135 150 152 158 164 178 188 177 167 147 108 88 88 85 97 102 108 116 123 128 140
228 287 354 45 83 107 109 99 109 123 112 107 100 105 124 140 145 146 145 136 129 120 122 122 126 127 117 112 132 158 151 160 190 162 153 163 103 85 96 111 112 109 120 131 145 162 178 199 191
248 245 28 45 66 94 106 99 113 126 119 128 129 134 145 152 152 142 131 124 123 126 120 122 130 123 122 121 129 114 108 140 126 94 112 97 96 116 122 144 145 145 150 168 166 205 210 139 81
144 45 45 54 65 84 98 105 95 74 86 109 125 140 151 155 149 142 141 137 133 125 125 126 132 126 119 109 115 118 106 113 84 13 103 96 77 82 92 98 96 109 99 58 38 42 64 61 61
141 113 99 91 88 95 92 94 104 100 100 110 126 140 153 155 148 144 143 139 134 134 130 104 86 91 102 100 117 114 91 54 78 11 60 97 96 94 96 91 64 74 80 70 32 42 56 54 47
96 109 125 130 120 124 126 130 128 129 129 131 138 148 157 152 150 150 156 147 140 143 132 115 113 99 105 118 107 85 95 95 77 14 40 91 86 84 80 92 73 59 69 72 58 62 65 70 65
156 178 183 172 167 161 139 148 154 145 146 150 154 156 159 162 164 162 156 149 145 144 132 128 116 100 86 75 65 77 72 86 81 33 22 69 84 84 75 74 74 57 53 73 63 61 58 75 83
214 216 212 189 184 175 184 179 145 151 156 160 165 163 169 172 173 169 157 152 146 138 130 132 128 107 90 75 60 65 60 58 65 44 22 31 67 85 72 62 67 60 44 56 63 60 51 56 57
225 222 204 183 188 180 191 187 159 175 165 169 176 174 177 179 184 171 160 156 149 140 134 137 130 120 111 108 94 65 74 55 59 51 30 17 32 72 85 69 68 69 54 44 55 56 51 59 55
245 228 225 188 181 188 189 185 175 188 182 181 180 180 184 184 183 171 161 149 144 146 141 135 125 124 118 110 97 72 62 54 62 61 48 26 25 50 69 77 74 74 66 41 50 70 57 62 48
277 279 281 277 187 201 198 190 188 188 195 189 188 190 188 185 176 163 157 154 153 157 150 143 149 147 127 113 105 105 101 82 74 71 57 40 43 52 62 58 66 76 84 72 62 62 47 13 51
241 235 284 338 269 233 210 220 201 195 201 199 198 196 188 177 169 161 165 164 169 168 160 158 159 148 138 136 143 144 136 122 99 73 55 40 56 51 72 80 77 86 88 66 47 60 36 345 28
255 247 245 279 297 272 254 245 210 194 198 199 210 209 192 181 176 168 170 168 171 170 172 165 156 145 142 143 131 108 87 81 100 108 90 39 71 73 61 79 99 111 103 104 78 68 59 6 337
283 288 233 240 260 261 234 249 202 184 188 192 199 205 197 183 173 168 171 171 174 173 171 165 161 154 147 140 148 150 160 179 168 154 156 154 118 93 63 51 69 91 104 113 100 89 63 65 343
292 296 272 260 263 269 259 243 211 176 189 189 187 192 189 182 175 168 168 169 172 168 166 165 159 149 145 149 151 168 189 183 144 138 147 150 136 129 131 93 76 90 102 110 101 76 57 73 31
246 275 267 252 257 259 246 229 201 184 194 181 177 180 183 177 169 166 162 161 165 154 155 157 153 151 152 156 164 188 192 171 149 153 153 154 140 157 168 144 126 145 128 115 98 96 95 74 36
243 288 300 260 219 245 223 209 191 160 165 172 174 176 177 174 170 165 161 163 156 151 157 159 155 157 163 173 181 182 183 180 174 169 164 164 156 167 172 139 177 161 129 117 111 88 86 107 91
249 242 256 292 278 292 265 200 126 121 137 153 154 164 167 166 167 163 160 160 157 157 160 166 164 167 171 180 186 183 175 175 180 177 166 177 173 173 157 151 167 139 132 134 121 109 145 133 133
274 252 239 263 277 277 257 132 116 118 127 144 152 161 166 161 161 157 157 158 158 160 164 171 166 167 175 186 186 184 173 175 175 176 175 169 169 158 141 150 153 144 134 127 126 129 176 106 61
259 280 276 265 287 288 281 239 186 163 152 157 159 161 160 152 153 151 156 159 159 161 165 170 167 172 179 184 185 179 171 175 168 171 179 158 158 138 133 147 144 146 142 138 133 140 168 110 81
239 250 267 278 252 250 293 333 66 117 131 149 158 160 157 153 150 150 154 153 153 155 160 169 168 171 176 182 185 169 164 170 165 166 168 156 156 152 146 151 155 159 154 146 136 148 151 140 152
252 261 263 267 277 255 221 252 143 107 106 128 146 144 143 144 146 149 152 155 156 159 166 173 174 171 173 174 165 160 160 160 160 168 171 164 162 157 159 156 154 141 141 142 146 166 152 154 164